Regional Weather Roundup
Issued by NWS

Home | Current Version | Previous Version | Graphics & Text | Print | Product List | Glossary Off
Versions: 1 2 3 4 5 6 7 8 9 10 11 12 13 14 15 16 17 18 19 20 21 22 23 24 25 26 27 28 29 30 31 32 33 34 35 36 37 38 39 40 41 42 43 44 45 46 47 48 49 50

000
ASUS43 KMKX 280821
RWRWI

WISCONSIN REGIONAL WEATHER ROUNDUP
NATIONAL WEATHER SERVICE MILWAUKEE/SULLIVAN WI
300 AM CDT THU JUL 28 2016

NOTE: "FAIR" INDICATES FEW OR NO CLOUDS BELOW 12,000 FEET WITH NO
SIGNIFICANT WEATHER AND/OR OBSTRUCTIONS TO VISIBILITY.

WIZ001-002-006>008-014>016-023>028-280900-
NORTHWEST WISCONSIN

CITY           SKY/WX    TMP DP  RH WIND       PRES   REMARKS
SUPERIOR ARPT  CLOUDY    55  55  99 CALM      30.05S
ASHLAND        MOCLDY    62  60  93 NE8       30.04R
HAYWARD        CLOUDY    63  61  93 N5        30.03R
SIREN          NOT AVBL
CUMBERLAND     CLOUDY    63  61  94 N8        30.00F
RICE LAKE      CLOUDY    64  62  92 N3        30.01S
CHETEK         NOT AVBL
LADYSMITH      CLOUDY    65  64  96 N3        30.01S
EAU CLAIRE     CLOUDY    65  65 100 N6        29.96S
MENOMONIE      CLOUDY    66  65  99 N6        29.97F
NEW RICHMOND   CLOUDY    64  64  99 N7        30.00R
OSCEOLA        CLOUDY    64  64 100 N5        30.03R
$$

WIZ003>005-009-010-017-018-280900-
NORTH CENTRAL WISCONSIN

CITY           SKY/WX    TMP DP  RH WIND       PRES   REMARKS
MANITOWISH WTR CLOUDY    61  61 100 NE7       30.03S
ARBOR VITAE    CLOUDY    62  60  93 E7        30.02F
WOODRUFF       CLOUDY    62  60  93 E7        30.02F
RHINELANDER    LGT RAIN  60  58  92 E9        30.02F
EAGLE RIVER    CLOUDY    60  60 100 E6        30.03S
LAND O LAKES   CLOUDY    59  58  94 NE3       30.06R
PHILLIPS       CLOUDY    63  63  99 NE7       30.01R
TOMAHAWK       CLOUDY    64  62  96 E3        30.01S
MEDFORD        DRIZZLE   62  62 100 E5        29.98S
MERRILL        DRIZZLE   64  64 100 E7        29.99F
$$

WIZ029-030-035-036-043>047-280900-
CENTRAL WISCONSIN

CITY           SKY/WX    TMP DP  RH WIND       PRES   REMARKS
WAUSAU         LGT RAIN  64  63  96 E7        29.96F
MOSINEE        CLOUDY    63  63 100 E8        29.98S
MARSHFIELD     LGT RAIN  66  63  90 E6        29.95S
STEVENS POINT  RAIN      63  63 100 E9        29.96F
WAUPACA        RAIN      67  67  99 CALM      29.96F
WAUTOMA        CLOUDY    66  65  96 NE6       29.95S
WISC RAPIDS    RAIN      65  62  90 E12       29.95F FOG
CAMP DOUGLAS   CLOUDY    66  66 100 CALM      29.92F
$$

WIZ011>013-019>022-031-037>040-048>050-280900-
NORTHEAST WISCONSIN

CITY           SKY/WX    TMP DP  RH WIND       PRES   REMARKS
ANTIGO         LGT RAIN  59  58  94 NE5       30.02R
SHAWANO        LGT RAIN  65  63  92 E9        29.98S
OCONTO         CLOUDY   N/A N/A N/A NE3       29.96F
STURGEON BAY   LGT RAIN  63  61  93 NE10G16   29.96F
GREEN BAY      CLOUDY    66  66 100 NE9       29.96F
MANITOWOC      CLOUDY    67  61  81 NE8G18    29.96S
APPLETON       CLOUDY    66  64  94 E7        29.95S
CLINTONVILLE   LGT RAIN  64  63  94 E7        29.97R
OSHKOSH        LGT RAIN  70  67  90 E8        29.94S
$$

WIZ032>034-041-042-053>061-280900-
SOUTHWEST WISCONSIN

CITY           SKY/WX    TMP DP  RH WIND       PRES   REMARKS
LA CROSSE      CLOUDY    70  67  90 N7        29.90F
SPARTA         CLOUDY    65  64  98 NE3       29.92S
VIROQUA        CLOUDY    66  66 100 E5        29.93S
BOSCOBEL       FOG       69  68  96 CALM      29.91S VSB 1/4
PRAIRIE DU CHI CLOUDY    68  66  93 CALM      29.90S
PLATTEVILLE    PTCLDY    68  68 100 CALM      29.92F
$$

WIZ056-057-062-063-064-067-068-280900-
SOUTH CENTRAL WISCONSIN

CITY           SKY/WX    TMP DP  RH WIND       PRES   REMARKS
REEDSBURG      CLOUDY    69  69 100 E3        29.91F
BARABOO/DELLS  MOCLDY    68  66  93 NE5       29.92S FOG
LONE ROCK      PTCLDY    66  64  93 CALM      29.91S FOG
MINERAL POINT  CLEAR     70  68  94 CALM      29.92F
MADISON        CLEAR     70  67  90 CALM      29.90F
MIDDLETON      MOCLDY    69  69 100 CALM      29.91F
WATERTOWN      PTCLDY    69  69 100 CALM      29.91F FOG
MONROE         CLEAR     68  66  94 CALM      29.91F
JANESVILLE     PTCLDY    70  68  94 SE3       29.90F
$$

WIZ051-052-058>065-066-070>072-280900-
SOUTHEAST WISCONSIN

CITY           SKY/WX    TMP DP  RH WIND       PRES   REMARKS
MILWAUKEE      CLOUDY    69  66  90 NE5       29.92F
WAUKESHA       HVY RAIN  68  68 100 N8        29.94S
MILWAUKEE/TIMM PTCLDY    68  63  83 CALM      29.93F
RACINE         CLOUDY    68  66  93 E5        29.93F FOG
BURLINGTON     PTCLDY    66  66  97 CALM      29.91F FOG
KENOSHA        CLOUDY    69  66  90 E6        29.92F
FOND DU LAC    TSTM      71  66  84 NE12      29.94F
SHEBOYGAN      MOCLDY    66  62  87 NE15      29.95F
WEST BEND      MOCLDY    66  64  94 NE5       29.94S FOG
JUNEAU         MOCLDY    66  65  97 N7        29.94F
$$

LSZ147-162-280900-
LAKE SUPERIOR

STATION/POSITION TIME  TEMP    WIND        PRES    WAVE
                       AIR SEA DIR/SP/G            HT/PER
                 (UTC) (F)     (DEG/KT/KT) (MB)    (FT/S)
W MID LAKE BUOY  0750   61 60  360/  8/  8 1016.9F   1
DEVILS ISLAND    0800   62      30/ 11/ 12 1017.7R
PORT WING        0640   60      60/  4/  5 1017.3F
SAXON HARBOR     0740   65      80/  3/  4 1016.6S
$$

LMZ867-665-643>646-280900-
LAKE MICHIGAN

STATION/POSITION TIME  TEMP    WIND        PRES    WAVE
                       AIR SEA DIR/SP/G            HT/PER
                 (UTC) (F)     (DEG/KT/KT) (MB)    (FT/S)
CHAMBERS ISLAND  0700   66      40/ 14/ 16 1015.6F
N MID LAKE BUOY  0750   64 69   30/ 10/ 14 1015.4F   2/ 4
NORTHPORT PIER   0700   65      30/  9/ 11 1016.3F
SISTER BAY       0721   61      90/  7/ 10   N/A
ALGOMA LAKESHORE 0713           50/ 11/ 15   N/A
KEWAUNEE LAKESHO 0700   67      20/  8/ 12 1014.8S
SHEBOYGAN LAKESH 0800   61      10/ 15/ 16 1014.2F
PORT WASHINGTON  0740   61      20/  7/  9 1014.6F
ATWATER BUOY     0800   63 64  320/  6/  6 1015.0F
MILWAUKEE LAKESH 0710   67      30/  8/  9   N/A
S MID LAKE BUOY  0750   74 75   40/  6/  6 1012.2F   0
KENOSHA   LAKESH 0800   72      90/ 15/ 18 1012.2F
$$

TC  - TEMPERATURE IN CELSIUS
VSB - VISIBILITY IN STATUTE MILES
WCI - WIND CHILL INDEX
HX  - HEAT INDEX





USA.gov is the U.S. government's official web portal to all federal, state and local government web resources and services.